owner,sensor,date,latitude,longitude,relative_humidity,qcFlag 
TABS,ioos:station:wmo:42043:1,2019-07-01T04:00:00Z,28.9818,-94.9186,91.4,11111222 
TABS,ioos:station:wmo:42043:1,2019-07-01T05:00:00Z,28.9818,-94.9186,88.6,11111222 
TABS,ioos:station:wmo:42043:1,2019-07-01T06:00:00Z,28.9818,-94.9186,89.9,11111222 
TABS,ioos:station:wmo:42043:1,2019-07-01T07:00:00Z,28.9818,-94.9186,92.0,11111222 
TABS,ioos:station:wmo:42043:1,2019-07-01T08:00:00Z,28.9818,-94.9186,94.9,11111222 
TABS,ioos:station:wmo:42043:1,2019-07-01T09:00:00Z,28.9818,-94.9186,93.3,11111222 
TABS,ioos:station:wmo:42043:1,2019-07-01T10:00:00Z,28.9818,-94.9186,91.9,11111222 
TABS,ioos:station:wmo:42043:1,2019-07-01T11:00:00Z,28.9818,-94.9186,89.3,11111222 
TABS,ioos:station:wmo:42043:1,2019-07-01T12:00:00Z,28.9818,-94.9186,87.8,11111222 
TABS,ioos:station:wmo:42043:1,2019-07-01T13:00:00Z,28.9818,-94.9186,84.8,11111222 
TABS,ioos:station:wmo:42043:1,2019-07-01T15:30:00Z,28.9818,-94.9186,87.1,11111222 
TABS,ioos:station:wmo:42043:1,2019-07-01T16:00:00Z,28.9818,-94.9186,85.1,11111222 
TABS,ioos:station:wmo:42043:1,2019-07-01T17:00:00Z,28.9818,-94.9186,83.0,11111222 
TABS,ioos:station:wmo:42043:1,2019-07-01T18:00:00Z,28.9818,-94.9186,87.8,11111222 
TABS,ioos:station:wmo:42043:1,2019-07-01T19:00:00Z,28.9818,-94.9186,84.3,11111222 
TABS,ioos:station:wmo:42043:1,2019-07-01T20:00:00Z,28.9818,-94.9186,82.4,11111222 
TABS,ioos:station:wmo:42043:1,2019-07-01T21:00:00Z,28.9818,-94.9186,82.7,11111222 
TABS,ioos:station:wmo:42043:1,2019-07-01T22:00:00Z,28.9818,-94.9186,82.8,11111222 
TABS,ioos:station:wmo:42043:1,2019-07-01T23:00:00Z,28.9818,-94.9186,85.6,11111222 
TABS,ioos:station:wmo:42043:1,2019-07-01T23:30:00Z,28.9818,-94.9186,89.6,11111222 
TABS,ioos:station:wmo:42043:1,2019-07-02T04:00:00Z,28.9818,-94.9186,92.5,11111222 
TABS,ioos:station:wmo:42043:1,2019-07-02T05:00:00Z,28.9818,-94.9186,92.2,11111222 
TABS,ioos:station:wmo:42043:1,2019-07-02T06:00:00Z,28.9818,-94.9186,89.1,11111222 
TABS,ioos:station:wmo:42043:1,2019-07-02T07:00:00Z,28.9818,-94.9186,89.6,11111222 
TABS,ioos:station:wmo:42043:1,2019-07-02T08:00:00Z,28.9818,-94.9186,90.0,11111222 
TABS,ioos:station:wmo:42043:1,2019-07-02T09:00:00Z,28.9818,-94.9186,91.5,11111222 
TABS,ioos:station:wmo:42043:1,2019-07-02T10:00:00Z,28.9818,-94.9186,89.5,11111222 
TABS,ioos:station:wmo:42043:1,2019-07-02T10:30:00Z,28.9818,-94.9186,90.7,11111222 
TABS,ioos:station:wmo:42043:1,2019-07-02T12:00:00Z,28.9818,-94.9186,89.1,11111222 
TABS,ioos:station:wmo:42043:1,2019-07-02T12:30:00Z,28.9818,-94.9186,91.4,11111222 
TABS,ioos:station:wmo:42043:1,2019-07-02T14:00:00Z,28.9818,-94.9186,89.9,11111222 
TABS,ioos:station:wmo:42043:1,2019-07-02T15:00:00Z,28.9818,-94.9186,88.2,11111222 
TABS,ioos:station:wmo:42043:1,2019-07-02T16:00:00Z,28.9818,-94.9186,90.2,11111222 
TABS,ioos:station:wmo:42043:1,2019-07-02T17:00:00Z,28.9818,-94.9186,91.8,11111222 
TABS,ioos:station:wmo:42043:1,2019-07-02T18:00:00Z,28.9818,-94.9186,88.6,11111222 
TABS,ioos:station:wmo:42043:1,2019-07-02T19:00:00Z,28.9818,-94.9186,86.1,11111222 
TABS,ioos:station:wmo:42043:1,2019-07-02T19:30:00Z,28.9818,-94.9186,94.8,11111222 
TABS,ioos:station:wmo:42043:1,2019-07-02T21:00:00Z,28.9818,-94.9186,98.8,11111222 
TABS,ioos:station:wmo:42043:1,2019-07-02T22:00:00Z,28.9818,-94.9186,94.8,11111222 
TABS,ioos:station:wmo:42043:1,2019-07-02T23:00:00Z,28.9818,-94.9186,98.7,11111222 
TABS,ioos:station:wmo:42043:1,2019-07-02T23:30:00Z,28.9818,-94.9186,95.6,11111222 
TABS,ioos:station:wmo:42043:1,2019-07-03T04:00:00Z,28.9818,-94.9186,88.2,11111222 
TABS,ioos:station:wmo:42043:1,2019-07-03T05:00:00Z,28.9818,-94.9186,88.8,11111222 
TABS,ioos:station:wmo:42043:1,2019-07-03T06:00:00Z,28.9818,-94.9186,89.0,11111222 
TABS,ioos:station:wmo:42043:1,2019-07-03T07:00:00Z,28.9818,-94.9186,96.3,11111222 
TABS,ioos:station:wmo:42043:1,2019-07-03T08:00:00Z,28.9818,-94.9186,97.3,11111222 
TABS,ioos:station:wmo:42043:1,2019-07-03T09:00:00Z,28.9818,-94.9186,98.8,11111222 
TABS,ioos:station:wmo:42043:1,2019-07-03T10:00:00Z,28.9818,-94.9186,98.9,11111222 
TABS,ioos:station:wmo:42043:1,2019-07-03T11:00:00Z,28.9818,-94.9186,98.9,11111222 
TABS,ioos:station:wmo:42043:1,2019-07-03T12:00:00Z,28.9818,-94.9186,98.9,11111222 
TABS,ioos:station:wmo:42043:1,2019-07-03T13:00:00Z,28.9818,-94.9186,99.0,11111222 
TABS,ioos:station:wmo:42043:1,2019-07-03T14:00:00Z,28.9818,-94.9186,98.8,11111222 
TABS,ioos:station:wmo:42043:1,2019-07-03T15:00:00Z,28.9818,-94.9186,98.5,11111222 
TABS,ioos:station:wmo:42043:1,2019-07-03T16:00:00Z,28.9818,-94.9186,98.3,11111222 
TABS,ioos:station:wmo:42043:1,2019-07-03T17:00:00Z,28.9818,-94.9186,96.5,11111222 
TABS,ioos:station:wmo:42043:1,2019-07-03T18:00:00Z,28.9818,-94.9186,96.7,11111222 
TABS,ioos:station:wmo:42043:1,2019-07-03T19:00:00Z,28.9818,-94.9186,92.5,11111222 
TABS,ioos:station:wmo:42043:1,2019-07-03T20:00:00Z,28.9818,-94.9186,92.2,11111222 
TABS,ioos:station:wmo:42043:1,2019-07-03T21:00:00Z,28.9818,-94.9186,96.8,11111222 
TABS,ioos:station:wmo:42043:1,2019-07-03T22:00:00Z,28.9818,-94.9186,97.4,11111222 
TABS,ioos:station:wmo:42043:1,2019-07-03T23:00:00Z,28.9818,-94.9186,97.5,11111222 
TABS,ioos:station:wmo:42043:1,2019-07-03T23:30:00Z,28.9818,-94.9186,95.6,11111222 
TABS,ioos:station:wmo:42043:1,2019-07-04T05:00:00Z,28.9818,-94.9186,99.0,11111222 
TABS,ioos:station:wmo:42043:1,2019-07-04T06:00:00Z,28.9818,-94.9186,99.3,11111222 
TABS,ioos:station:wmo:42043:1,2019-07-04T07:00:00Z,28.9818,-94.9186,99.3,11111222 
TABS,ioos:station:wmo:42043:1,2019-07-04T08:00:00Z,28.9818,-94.9186,99.4,11111222 
TABS,ioos:station:wmo:42043:1,2019-07-04T09:00:00Z,28.9818,-94.9186,99.4,11111222 
TABS,ioos:station:wmo:42043:1,2019-07-04T10:00:00Z,28.9818,-94.9186,99.2,11111222 
TABS,ioos:station:wmo:42043:1,2019-07-04T11:00:00Z,28.9818,-94.9186,99.2,11111222 
TABS,ioos:station:wmo:42043:1,2019-07-04T12:00:00Z,28.9818,-94.9186,99.1,11111222 
TABS,ioos:station:wmo:42043:1,2019-07-04T13:00:00Z,28.9818,-94.9186,99.2,11111222 
TABS,ioos:station:wmo:42043:1,2019-07-04T14:00:00Z,28.9818,-94.9186,99.1,11111222 
TABS,ioos:station:wmo:42043:1,2019-07-04T15:00:00Z,28.9818,-94.9186,99.0,11111222 
TABS,ioos:station:wmo:42043:1,2019-07-04T16:00:00Z,28.9818,-94.9186,99.2,11111222 
TABS,ioos:station:wmo:42043:1,2019-07-04T17:00:00Z,28.9818,-94.9186,99.0,11111222 
TABS,ioos:station:wmo:42043:1,2019-07-04T18:00:00Z,28.9818,-94.9186,99.0,11111222 
TABS,ioos:station:wmo:42043:1,2019-07-04T19:00:00Z,28.9818,-94.9186,99.0,11111222 
TABS,ioos:station:wmo:42043:1,2019-07-04T20:00:00Z,28.9818,-94.9186,98.8,11111222 
TABS,ioos:station:wmo:42043:1,2019-07-04T21:00:00Z,28.9818,-94.9186,98.9,11111222 
TABS,ioos:station:wmo:42043:1,2019-07-04T22:00:00Z,28.9818,-94.9186,98.8,11111222 
TABS,ioos:station:wmo:42043:1,2019-07-04T23:00:00Z,28.9818,-94.9186,98.8,11111222 
TABS,ioos:station:wmo:42043:1,2019-07-04T23:30:00Z,28.9818,-94.9186,98.8,11111222 
TABS,ioos:station:wmo:42043:1,2019-07-05T04:00:00Z,28.9818,-94.9186,98.9,11111222 
TABS,ioos:station:wmo:42043:1,2019-07-05T05:00:00Z,28.9818,-94.9186,98.9,11111222 
TABS,ioos:station:wmo:42043:1,2019-07-05T06:00:00Z,28.9818,-94.9186,98.8,11111222 
TABS,ioos:station:wmo:42043:1,2019-07-05T07:00:00Z,28.9818,-94.9186,98.9,11111222 
TABS,ioos:station:wmo:42043:1,2019-07-05T08:00:00Z,28.9818,-94.9186,98.8,11111222 
TABS,ioos:station:wmo:42043:1,2019-07-05T09:00:00Z,28.9818,-94.9186,97.8,11111222 
TABS,ioos:station:wmo:42043:1,2019-07-05T10:00:00Z,28.9818,-94.9186,98.4,11111222 
TABS,ioos:station:wmo:42043:1,2019-07-05T11:00:00Z,28.9818,-94.9186,98.7,11111222 
TABS,ioos:station:wmo:42043:1,2019-07-05T12:00:00Z,28.9818,-94.9186,95.9,11111222 
TABS,ioos:station:wmo:42043:1,2019-07-05T13:00:00Z,28.9818,-94.9186,94.7,11111222 
TABS,ioos:station:wmo:42043:1,2019-07-05T14:00:00Z,28.9818,-94.9186,94.5,11111222 
TABS,ioos:station:wmo:42043:1,2019-07-05T15:00:00Z,28.9818,-94.9186,93.6,11111222 
TABS,ioos:station:wmo:42043:1,2019-07-05T16:00:00Z,28.9818,-94.9186,94.2,11111222 
TABS,ioos:station:wmo:42043:1,2019-07-05T17:00:00Z,28.9818,-94.9186,95.2,11111222 
TABS,ioos:station:wmo:42043:1,2019-07-05T18:00:00Z,28.9818,-94.9186,94.5,11111222 
TABS,ioos:station:wmo:42043:1,2019-07-05T19:00:00Z,28.9818,-94.9186,93.0,11111222 
TABS,ioos:station:wmo:42043:1,2019-07-05T20:00:00Z,28.9818,-94.9186,93.9,11111222 
TABS,ioos:station:wmo:42043:1,2019-07-05T21:00:00Z,28.9818,-94.9186,92.4,11111222 
TABS,ioos:station:wmo:42043:1,2019-07-05T22:00:00Z,28.9818,-94.9186,92.9,11111222 
TABS,ioos:station:wmo:42043:1,2019-07-05T23:00:00Z,28.9818,-94.9186,93.6,11111222 
TABS,ioos:station:wmo:42043:1,2019-07-05T23:30:00Z,28.9818,-94.9186,93.4,11111222 
TABS,ioos:station:wmo:42043:1,2019-07-06T04:00:00Z,28.9818,-94.9186,95.8,11111222 
TABS,ioos:station:wmo:42043:1,2019-07-06T05:00:00Z,28.9818,-94.9186,95.4,11111222 
TABS,ioos:station:wmo:42043:1,2019-07-06T06:00:00Z,28.9818,-94.9186,93.9,11111222 
TABS,ioos:station:wmo:42043:1,2019-07-06T07:00:00Z,28.9818,-94.9186,97.9,11111222 
TABS,ioos:station:wmo:42043:1,2019-07-06T08:00:00Z,28.9818,-94.9186,97.7,11111222 
TABS,ioos:station:wmo:42043:1,2019-07-06T09:00:00Z,28.9818,-94.9186,98.8,11111222 
TABS,ioos:station:wmo:42043:1,2019-07-06T10:00:00Z,28.9818,-94.9186,97.7,11111222 
TABS,ioos:station:wmo:42043:1,2019-07-06T11:00:00Z,28.9818,-94.9186,97.6,11111222 
TABS,ioos:station:wmo:42043:1,2019-07-06T12:00:00Z,28.9818,-94.9186,96.9,11111222 
TABS,ioos:station:wmo:42043:1,2019-07-06T13:00:00Z,28.9818,-94.9186,94.4,11111222 
TABS,ioos:station:wmo:42043:1,2019-07-06T14:00:00Z,28.9818,-94.9186,89.8,11111222 
TABS,ioos:station:wmo:42043:1,2019-07-06T15:00:00Z,28.9818,-94.9186,95.9,11111222 
TABS,ioos:station:wmo:42043:1,2019-07-06T16:00:00Z,28.9818,-94.9186,92.4,11111222 
TABS,ioos:station:wmo:42043:1,2019-07-06T17:00:00Z,28.9818,-94.9186,93.4,11111222 
TABS,ioos:station:wmo:42043:1,2019-07-06T18:00:00Z,28.9818,-94.9186,93.5,11111222 
TABS,ioos:station:wmo:42043:1,2019-07-06T19:00:00Z,28.9818,-94.9186,92.2,11111222 
TABS,ioos:station:wmo:42043:1,2019-07-06T20:00:00Z,28.9818,-94.9186,88.4,11111222 
TABS,ioos:station:wmo:42043:1,2019-07-06T21:00:00Z,28.9818,-94.9186,85.7,11111222 
TABS,ioos:station:wmo:42043:1,2019-07-06T22:00:00Z,28.9818,-94.9186,83.7,11111222 
TABS,ioos:station:wmo:42043:1,2019-07-06T23:00:00Z,28.9818,-94.9186,87.7,11111222 
TABS,ioos:station:wmo:42043:1,2019-07-06T23:30:00Z,28.9818,-94.9186,88.8,11111222 
TABS,ioos:station:wmo:42043:1,2019-07-07T04:00:00Z,28.9818,-94.9186,91.1,11111222 
TABS,ioos:station:wmo:42043:1,2019-07-07T05:00:00Z,28.9818,-94.9186,90.9,11111222 
TABS,ioos:station:wmo:42043:1,2019-07-07T06:00:00Z,28.9818,-94.9186,93.9,11111222 
TABS,ioos:station:wmo:42043:1,2019-07-07T07:00:00Z,28.9818,-94.9186,96.2,11111222 
TABS,ioos:station:wmo:42043:1,2019-07-07T08:00:00Z,28.9818,-94.9186,98.1,11111222 
TABS,ioos:station:wmo:42043:1,2019-07-07T09:00:00Z,28.9818,-94.9186,93.6,11111222 
TABS,ioos:station:wmo:42043:1,2019-07-07T10:00:00Z,28.9818,-94.9186,97.3,11111222 
TABS,ioos:station:wmo:42043:1,2019-07-07T11:00:00Z,28.9818,-94.9186,94.1,11111222 
TABS,ioos:station:wmo:42043:1,2019-07-07T12:00:00Z,28.9818,-94.9186,98.8,11111222 
TABS,ioos:station:wmo:42043:1,2019-07-07T13:00:00Z,28.9818,-94.9186,98.4,11111222 
TABS,ioos:station:wmo:42043:1,2019-07-07T14:00:00Z,28.9818,-94.9186,97.7,11111222 
TABS,ioos:station:wmo:42043:1,2019-07-07T15:00:00Z,28.9818,-94.9186,98.5,11111222 
TABS,ioos:station:wmo:42043:1,2019-07-07T16:00:00Z,28.9818,-94.9186,94.2,11111222 
TABS,ioos:station:wmo:42043:1,2019-07-07T17:00:00Z,28.9818,-94.9186,93.5,11111222 
TABS,ioos:station:wmo:42043:1,2019-07-07T18:00:00Z,28.9818,-94.9186,92.9,11111222 
TABS,ioos:station:wmo:42043:1,2019-07-07T19:00:00Z,28.9818,-94.9186,91.8,11111222 
TABS,ioos:station:wmo:42043:1,2019-07-07T20:00:00Z,28.9818,-94.9186,92.7,11111222 
TABS,ioos:station:wmo:42043:1,2019-07-07T21:00:00Z,28.9818,-94.9186,96.4,11111222 
TABS,ioos:station:wmo:42043:1,2019-07-07T22:00:00Z,28.9818,-94.9186,92.4,11111222 
TABS,ioos:station:wmo:42043:1,2019-07-07T23:00:00Z,28.9818,-94.9186,90.2,11111222 
TABS,ioos:station:wmo:42043:1,2019-07-07T23:30:00Z,28.9818,-94.9186,94.5,11111222 
TABS,ioos:station:wmo:42043:1,2019-07-08T04:00:00Z,28.9818,-94.9186,98.9,11111222 
TABS,ioos:station:wmo:42043:1,2019-07-08T05:00:00Z,28.9818,-94.9186,98.5,11111222 
TABS,ioos:station:wmo:42043:1,2019-07-08T06:00:00Z,28.9818,-94.9186,98.8,11111222 
TABS,ioos:station:wmo:42043:1,2019-07-08T07:00:00Z,28.9818,-94.9186,96.7,11111222 
TABS,ioos:station:wmo:42043:1,2019-07-08T08:00:00Z,28.9818,-94.9186,98.2,11111222 
TABS,ioos:station:wmo:42043:1,2019-07-08T09:00:00Z,28.9818,-94.9186,98.8,11111222 
TABS,ioos:station:wmo:42043:1,2019-07-08T10:00:00Z,28.9818,-94.9186,98.9,11111222 
TABS,ioos:station:wmo:42043:1,2019-07-08T11:00:00Z,28.9818,-94.9186,98.2,11111222 
TABS,ioos:station:wmo:42043:1,2019-07-08T12:00:00Z,28.9818,-94.9186,98.4,11111222 
TABS,ioos:station:wmo:42043:1,2019-07-08T13:00:00Z,28.9818,-94.9186,98.8,11111222 
TABS,ioos:station:wmo:42043:1,2019-07-08T14:00:00Z,28.9818,-94.9186,97.9,11111222 
TABS,ioos:station:wmo:42043:1,2019-07-08T15:00:00Z,28.9818,-94.9186,98.8,11111222 
TABS,ioos:station:wmo:42043:1,2019-07-08T16:00:00Z,28.9818,-94.9186,98.8,11111222 
TABS,ioos:station:wmo:42043:1,2019-07-08T17:00:00Z,28.9818,-94.9186,97.8,11111222 
TABS,ioos:station:wmo:42043:1,2019-07-08T18:00:00Z,28.9818,-94.9186,96.0,11111222 
TABS,ioos:station:wmo:42043:1,2019-07-08T19:00:00Z,28.9818,-94.9186,96.6,11111222 
TABS,ioos:station:wmo:42043:1,2019-07-08T20:00:00Z,28.9818,-94.9186,98.0,11111222 
TABS,ioos:station:wmo:42043:1,2019-07-08T21:00:00Z,28.9818,-94.9186,96.9,11111222 
TABS,ioos:station:wmo:42043:1,2019-07-08T22:00:00Z,28.9818,-94.9186,94.5,11111222 
TABS,ioos:station:wmo:42043:1,2019-07-08T23:00:00Z,28.9818,-94.9186,95.1,11111222 
TABS,ioos:station:wmo:42043:1,2019-07-08T23:30:00Z,28.9818,-94.9186,95.9,11111222 
TABS,ioos:station:wmo:42043:1,2019-07-09T04:00:00Z,28.9818,-94.9186,97.7,11111222 
TABS,ioos:station:wmo:42043:1,2019-07-09T05:00:00Z,28.9818,-94.9186,93.6,11111222 
TABS,ioos:station:wmo:42043:1,2019-07-09T06:00:00Z,28.9818,-94.9186,95.8,11111222 
TABS,ioos:station:wmo:42043:1,2019-07-09T07:00:00Z,28.9818,-94.9186,94.7,11111222 
TABS,ioos:station:wmo:42043:1,2019-07-09T08:00:00Z,28.9818,-94.9186,92.8,11111222 
TABS,ioos:station:wmo:42043:1,2019-07-09T09:00:00Z,28.9818,-94.9186,94.1,11111222 
TABS,ioos:station:wmo:42043:1,2019-07-09T10:00:00Z,28.9818,-94.9186,94.7,11111222 
TABS,ioos:station:wmo:42043:1,2019-07-09T11:00:00Z,28.9818,-94.9186,96.1,11111222 
TABS,ioos:station:wmo:42043:1,2019-07-09T12:00:00Z,28.9818,-94.9186,93.2,11111222 
TABS,ioos:station:wmo:42043:1,2019-07-09T13:00:00Z,28.9818,-94.9186,89.6,11111222 
TABS,ioos:station:wmo:42043:1,2019-07-09T14:00:00Z,28.9818,-94.9186,90.8,11111222 
TABS,ioos:station:wmo:42043:1,2019-07-09T15:00:00Z,28.9818,-94.9186,90.8,11111222 
TABS,ioos:station:wmo:42043:1,2019-07-09T16:00:00Z,28.9818,-94.9186,92.8,11111222 
TABS,ioos:station:wmo:42043:1,2019-07-09T17:00:00Z,28.9818,-94.9186,89.0,11111222 
TABS,ioos:station:wmo:42043:1,2019-07-09T18:00:00Z,28.9818,-94.9186,92.4,11111222 
TABS,ioos:station:wmo:42043:1,2019-07-09T19:00:00Z,28.9818,-94.9186,89.7,11111222 
TABS,ioos:station:wmo:42043:1,2019-07-09T20:00:00Z,28.9818,-94.9186,92.5,11111222 
TABS,ioos:station:wmo:42043:1,2019-07-09T21:00:00Z,28.9818,-94.9186,90.4,11111222 
TABS,ioos:station:wmo:42043:1,2019-07-09T22:00:00Z,28.9818,-94.9186,88.3,11111222 
TABS,ioos:station:wmo:42043:1,2019-07-09T23:00:00Z,28.9818,-94.9186,90.4,11111222 
TABS,ioos:station:wmo:42043:1,2019-07-09T23:30:00Z,28.9818,-94.9186,87.4,11111222 
TABS,ioos:station:wmo:42043:1,2019-07-10T04:00:00Z,28.9818,-94.9186,90.4,11111222 
TABS,ioos:station:wmo:42043:1,2019-07-10T05:00:00Z,28.9818,-94.9186,93.5,11111222 
TABS,ioos:station:wmo:42043:1,2019-07-10T05:30:00Z,28.9818,-94.9186,92.1,11111222 
TABS,ioos:station:wmo:42043:1,2019-07-10T07:00:00Z,28.9818,-94.9186,92.3,11111222 
TABS,ioos:station:wmo:42043:1,2019-07-10T08:00:00Z,28.9818,-94.9186,93.1,11111222 
TABS,ioos:station:wmo:42043:1,2019-07-10T09:00:00Z,28.9818,-94.9186,93.7,11111222 
TABS,ioos:station:wmo:42043:1,2019-07-10T10:00:00Z,28.9818,-94.9186,92.8,11111222 
TABS,ioos:station:wmo:42043:1,2019-07-10T11:00:00Z,28.9818,-94.9186,91.6,11111222 
TABS,ioos:station:wmo:42043:1,2019-07-10T12:00:00Z,28.9818,-94.9186,90.4,11111222 
TABS,ioos:station:wmo:42043:1,2019-07-10T13:00:00Z,28.9818,-94.9186,91.9,11111222 
TABS,ioos:station:wmo:42043:1,2019-07-10T14:00:00Z,28.9818,-94.9186,89.5,11111222 
TABS,ioos:station:wmo:42043:1,2019-07-10T15:00:00Z,28.9818,-94.9186,89.0,11111222 
TABS,ioos:station:wmo:42043:1,2019-07-10T16:00:00Z,28.9818,-94.9186,87.4,11111222 
TABS,ioos:station:wmo:42043:1,2019-07-10T17:00:00Z,28.9818,-94.9186,87.4,11111222 
TABS,ioos:station:wmo:42043:1,2019-07-10T18:00:00Z,28.9818,-94.9186,87.5,11111222 
TABS,ioos:station:wmo:42043:1,2019-07-10T19:00:00Z,28.9818,-94.9186,87.5,11111222 
TABS,ioos:station:wmo:42043:1,2019-07-10T20:00:00Z,28.9818,-94.9186,89.0,11111222 
TABS,ioos:station:wmo:42043:1,2019-07-10T21:00:00Z,28.9818,-94.9186,87.0,11111222 
TABS,ioos:station:wmo:42043:1,2019-07-10T22:00:00Z,28.9818,-94.9186,84.0,11111222 
TABS,ioos:station:wmo:42043:1,2019-07-10T23:00:00Z,28.9818,-94.9186,87.8,11111222 
TABS,ioos:station:wmo:42043:1,2019-07-10T23:30:00Z,28.9818,-94.9186,83.6,11111222 
TABS,ioos:station:wmo:42043:1,2019-07-11T04:00:00Z,28.9818,-94.9186,90.1,11111222 
TABS,ioos:station:wmo:42043:1,2019-07-11T05:00:00Z,28.9818,-94.9186,90.8,11111222 
TABS,ioos:station:wmo:42043:1,2019-07-11T06:00:00Z,28.9818,-94.9186,92.6,11111222 
TABS,ioos:station:wmo:42043:1,2019-07-11T06:30:00Z,28.9818,-94.9186,97.7,11111222 
TABS,ioos:station:wmo:42043:1,2019-07-11T08:00:00Z,28.9818,-94.9186,98.9,11111222 
TABS,ioos:station:wmo:42043:1,2019-07-11T09:00:00Z,28.9818,-94.9186,98.8,11111222 
TABS,ioos:station:wmo:42043:1,2019-07-11T10:00:00Z,28.9818,-94.9186,98.7,11111222 
TABS,ioos:station:wmo:42043:1,2019-07-11T11:00:00Z,28.9818,-94.9186,99.0,11111222 
TABS,ioos:station:wmo:42043:1,2019-07-11T12:00:00Z,28.9818,-94.9186,98.7,11111222 
TABS,ioos:station:wmo:42043:1,2019-07-11T13:00:00Z,28.9818,-94.9186,97.4,11111222 
TABS,ioos:station:wmo:42043:1,2019-07-11T14:00:00Z,28.9818,-94.9186,99.0,11111222 
TABS,ioos:station:wmo:42043:1,2019-07-11T15:00:00Z,28.9818,-94.9186,97.4,11111222 
TABS,ioos:station:wmo:42043:1,2019-07-11T16:00:00Z,28.9818,-94.9186,98.8,11111222 
TABS,ioos:station:wmo:42043:1,2019-07-11T17:00:00Z,28.9818,-94.9186,98.5,11111222 
TABS,ioos:station:wmo:42043:1,2019-07-11T18:00:00Z,28.9818,-94.9186,96.2,11111222 
TABS,ioos:station:wmo:42043:1,2019-07-11T19:00:00Z,28.9818,-94.9186,90.8,11111222 
TABS,ioos:station:wmo:42043:1,2019-07-11T20:00:00Z,28.9818,-94.9186,85.4,11111222 
TABS,ioos:station:wmo:42043:1,2019-07-11T21:00:00Z,28.9818,-94.9186,89.6,11111222 
TABS,ioos:station:wmo:42043:1,2019-07-11T22:00:00Z,28.9818,-94.9186,88.3,11111222 
TABS,ioos:station:wmo:42043:1,2019-07-11T23:00:00Z,28.9818,-94.9186,82.3,11111222 
TABS,ioos:station:wmo:42043:1,2019-07-11T23:30:00Z,28.9818,-94.9186,86.3,11111222 
TABS,ioos:station:wmo:42043:1,2019-07-12T04:00:00Z,28.9818,-94.9186,92.0,11111222 
TABS,ioos:station:wmo:42043:1,2019-07-12T05:00:00Z,28.9818,-94.9186,91.2,11111222 
TABS,ioos:station:wmo:42043:1,2019-07-12T06:00:00Z,28.9818,-94.9186,97.4,11111222 
TABS,ioos:station:wmo:42043:1,2019-07-12T07:00:00Z,28.9818,-94.9186,98.0,11111222 
TABS,ioos:station:wmo:42043:1,2019-07-12T08:00:00Z,28.9818,-94.9186,95.8,11111222 
TABS,ioos:station:wmo:42043:1,2019-07-12T09:00:00Z,28.9818,-94.9186,90.9,11111222 
TABS,ioos:station:wmo:42043:1,2019-07-12T10:00:00Z,28.9818,-94.9186,94.9,11111222 
TABS,ioos:station:wmo:42043:1,2019-07-12T11:00:00Z,28.9818,-94.9186,92.8,11111222 
TABS,ioos:station:wmo:42043:1,2019-07-12T12:00:00Z,28.9818,-94.9186,88.3,11111222 
TABS,ioos:station:wmo:42043:1,2019-07-12T13:00:00Z,28.9818,-94.9186,90.3,11111222 
TABS,ioos:station:wmo:42043:1,2019-07-12T14:00:00Z,28.9818,-94.9186,93.4,11111222 
TABS,ioos:station:wmo:42043:1,2019-07-12T15:00:00Z,28.9818,-94.9186,93.9,11111222 
TABS,ioos:station:wmo:42043:1,2019-07-12T16:00:00Z,28.9818,-94.9186,89.3,11111222 
TABS,ioos:station:wmo:42043:1,2019-07-12T17:00:00Z,28.9818,-94.9186,89.9,11111222 
TABS,ioos:station:wmo:42043:1,2019-07-12T18:00:00Z,28.9818,-94.9186,86.9,11111222 
TABS,ioos:station:wmo:42043:1,2019-07-12T19:00:00Z,28.9818,-94.9186,84.8,11111222 
TABS,ioos:station:wmo:42043:1,2019-07-12T20:00:00Z,28.9818,-94.9186,80.4,11111222 
TABS,ioos:station:wmo:42043:1,2019-07-12T21:00:00Z,28.9818,-94.9186,78.9,11111222 
TABS,ioos:station:wmo:42043:1,2019-07-12T22:00:00Z,28.9818,-94.9186,78.5,11111222 
TABS,ioos:station:wmo:42043:1,2019-07-12T23:00:00Z,28.9818,-94.9186,75.3,11111222 
TABS,ioos:station:wmo:42043:1,2019-07-12T23:30:00Z,28.9818,-94.9186,74.9,11111222 
TABS,ioos:station:wmo:42043:1,2019-07-13T04:00:00Z,28.9818,-94.9186,75.2,11111222 
TABS,ioos:station:wmo:42043:1,2019-07-13T05:00:00Z,28.9818,-94.9186,74.1,11111222 
TABS,ioos:station:wmo:42043:1,2019-07-13T06:00:00Z,28.9818,-94.9186,81.6,11111222 
TABS,ioos:station:wmo:42043:1,2019-07-13T07:00:00Z,28.9818,-94.9186,77.8,11111222 
TABS,ioos:station:wmo:42043:1,2019-07-13T08:00:00Z,28.9818,-94.9186,84.6,11111222 
TABS,ioos:station:wmo:42043:1,2019-07-13T09:00:00Z,28.9818,-94.9186,89.0,11111222 
TABS,ioos:station:wmo:42043:1,2019-07-13T10:00:00Z,28.9818,-94.9186,90.2,11111222 
TABS,ioos:station:wmo:42043:1,2019-07-13T11:00:00Z,28.9818,-94.9186,92.1,11111222 
TABS,ioos:station:wmo:42043:1,2019-07-13T12:00:00Z,28.9818,-94.9186,94.7,11111222 
TABS,ioos:station:wmo:42043:1,2019-07-13T13:00:00Z,28.9818,-94.9186,94.8,11111222 
TABS,ioos:station:wmo:42043:1,2019-07-13T14:00:00Z,28.9818,-94.9186,94.1,11111222 
TABS,ioos:station:wmo:42043:1,2019-07-13T15:00:00Z,28.9818,-94.9186,94.1,11111222 
TABS,ioos:station:wmo:42043:1,2019-07-13T16:00:00Z,28.9818,-94.9186,91.6,11111222 
TABS,ioos:station:wmo:42043:1,2019-07-13T17:00:00Z,28.9818,-94.9186,87.4,11111222 
TABS,ioos:station:wmo:42043:1,2019-07-13T18:00:00Z,28.9818,-94.9186,80.9,11111222 
TABS,ioos:station:wmo:42043:1,2019-07-13T19:00:00Z,28.9818,-94.9186,76.7,11111222 
TABS,ioos:station:wmo:42043:1,2019-07-13T20:00:00Z,28.9818,-94.9186,79.2,11111222 
TABS,ioos:station:wmo:42043:1,2019-07-13T21:00:00Z,28.9818,-94.9186,78.4,11111222 
TABS,ioos:station:wmo:42043:1,2019-07-13T22:00:00Z,28.9818,-94.9186,80.0,11111222 
TABS,ioos:station:wmo:42043:1,2019-07-13T23:00:00Z,28.9818,-94.9186,79.4,11111222 
TABS,ioos:station:wmo:42043:1,2019-07-13T23:30:00Z,28.9818,-94.9186,82.7,11111222 
TABS,ioos:station:wmo:42043:1,2019-07-14T04:00:00Z,28.9818,-94.9186,89.3,11111222 
TABS,ioos:station:wmo:42043:1,2019-07-14T05:00:00Z,28.9818,-94.9186,96.4,11111222 
TABS,ioos:station:wmo:42043:1,2019-07-14T06:00:00Z,28.9818,-94.9186,94.2,11111222 
TABS,ioos:station:wmo:42043:1,2019-07-14T07:00:00Z,28.9818,-94.9186,95.8,11111222 
TABS,ioos:station:wmo:42043:1,2019-07-14T08:00:00Z,28.9818,-94.9186,96.6,11111222 
TABS,ioos:station:wmo:42043:1,2019-07-14T09:00:00Z,28.9818,-94.9186,94.7,11111222 
TABS,ioos:station:wmo:42043:1,2019-07-14T10:00:00Z,28.9818,-94.9186,99.0,11111222 
TABS,ioos:station:wmo:42043:1,2019-07-14T11:00:00Z,28.9818,-94.9186,99.2,11111222 
TABS,ioos:station:wmo:42043:1,2019-07-14T12:00:00Z,28.9818,-94.9186,98.8,11111222 
TABS,ioos:station:wmo:42043:1,2019-07-14T13:00:00Z,28.9818,-94.9186,98.8,11111222 
TABS,ioos:station:wmo:42043:1,2019-07-14T14:00:00Z,28.9818,-94.9186,94.3,11111222 
TABS,ioos:station:wmo:42043:1,2019-07-14T15:00:00Z,28.9818,-94.9186,97.8,11111222 
TABS,ioos:station:wmo:42043:1,2019-07-14T16:00:00Z,28.9818,-94.9186,93.8,11111222 
TABS,ioos:station:wmo:42043:1,2019-07-14T17:00:00Z,28.9818,-94.9186,93.6,11111222 
TABS,ioos:station:wmo:42043:1,2019-07-14T18:00:00Z,28.9818,-94.9186,99.0,11111222 
TABS,ioos:station:wmo:42043:1,2019-07-14T19:00:00Z,28.9818,-94.9186,99.3,11111222 
TABS,ioos:station:wmo:42043:1,2019-07-14T20:00:00Z,28.9818,-94.9186,99.9,11111222 